Weather History for Meeker, CO

Change the Weather History Date:

Friday, September 20, 2013

  Actual Average Record
Temperature  
Mean Temperature 54 °F 55 °F  
Max Temperature 75 °F 72 °F 83 °F (2014)
Min Temperature 33 °F 38 °F 30 °F (2003)
Degree Days  
Heating Degree Days 11 10  
Month to date heating degree days 55 129  
Since 1 July heating degree days 74 183  
Growing Degree Days 3 (Base 50)    
Moisture  
Dew Point 29 °F    
Average Humidity 48    
Maximum Humidity 82    
Minimum Humidity 13    
Precipitation  
Precipitation 0.00 in 0.07 in 0.36 in (2006)
Month to date precipitation 1.77 1.16  
Year to date precipitation 11.86 11.02  
Sea Level Pressure  
Sea Level Pressure 30.04 in    
Wind  
Wind Speed 4 mph (East)    
Max Wind Speed 14 mph    
Max Gust Speed 18 mph    
Visibility 10 miles    
Events      
T = Trace of Precipitation, MM = Missing Value Source: NWS Daily Summary

Daily Weather History Graph

Daily Weather History Graph

Search for Another Location

Airport:

Trip Planner

Search our weather history database for the weather conditions in past years. The results will help you decide how hot, cold, wet, or windy it might be!

Date:

Astronomy

Sep. 20, 2013 Rise Set
Actual Time 6:57 AM MDT 7:11 PM MDT
Civil Twilight 6:30 AM MDT 7:38 PM MDT
Nautical Twilight 5:58 AM MDT 8:10 PM MDT
Astronomical Twilight 5:26 AM MDT 8:42 PM MDT
Moon 7:47 PM MDT (9/20) 8:15 AM MDT (9/20)
Length of Visible Light 13h 08m
Length of Day
12h 13m
Full, 98% of the Moon is Illuminated
Sep 20
Full
Sep 26
Last Quarter
Oct 4
New
Oct 11
First Quarter
Oct 18
Full

Hourly Weather History & Observations

Time (MDT) Temp. Windchill Dew Point Humidity Pressure Visibility Wind Dir Wind Speed Gust Speed Precip Events Conditions
12:53 AM 42.1 °F 38.4 °F 30.9 °F 65% 30.09 in 10.0 mi ENE 5.8 mph - N/A   Clear
1:53 AM 37.9 °F 34.4 °F 30.9 °F 76% 30.10 in 10.0 mi East 4.6 mph - N/A   Clear
2:53 AM 37.0 °F 33.3 °F 30.0 °F 76% 30.10 in 10.0 mi ENE 4.6 mph - N/A   Clear
3:53 AM 37.0 °F 34.5 °F 30.0 °F 76% 30.09 in 10.0 mi ENE 3.5 mph - N/A   Clear
4:53 AM 35.1 °F - 30.0 °F 82% 30.09 in 10.0 mi Calm Calm - N/A   Clear
5:53 AM 36.0 °F - 28.9 °F 76% 30.10 in 10.0 mi Calm Calm - N/A   Clear
6:53 AM 33.1 °F 30.0 °F 28.0 °F 82% 30.13 in 10.0 mi East 3.5 mph - N/A   Clear
7:53 AM 37.9 °F - 30.0 °F 73% 30.15 in 10.0 mi Calm Calm - N/A   Clear
8:53 AM 45.0 °F - 30.0 °F 56% 30.14 in 10.0 mi Calm Calm - N/A   Clear
9:53 AM 52.0 °F - 28.9 °F 41% 30.11 in 10.0 mi Calm Calm - N/A   Clear
10:53 AM 59.0 °F - 33.1 °F 38% 30.08 in 10.0 mi Calm Calm - N/A   Clear
11:53 AM 66.0 °F - 27.0 °F 23% 30.04 in 10.0 mi Calm Calm - N/A   Clear
12:53 PM 71.1 °F - 28.9 °F 21% 30.00 in 9.0 mi SW 4.6 mph - N/A   Clear
1:17 PM 71.6 °F - 28.4 °F 20% 30.18 in 9.0 mi Variable 5.8 mph - N/A   Partly Cloudy
1:53 PM 73.0 °F - 30.0 °F 20% 29.99 in 10.0 mi SW 8.1 mph - N/A   Clear
2:53 PM 72.0 °F - 27.0 °F 19% 29.97 in 8.0 mi Variable 5.8 mph - N/A   Clear
3:53 PM 73.0 °F - 25.0 °F 17% 29.95 in 10.0 mi Calm Calm - N/A   Clear
4:53 PM 73.9 °F - 19.0 °F 13% 29.94 in 10.0 mi SW 10.4 mph - N/A   Clear
5:53 PM 71.1 °F - 23.0 °F 16% 29.94 in 10.0 mi SSW 8.1 mph - N/A   Clear
6:53 PM 64.9 °F - 27.0 °F 24% 29.97 in 10.0 mi SSW 6.9 mph - N/A   Clear
7:53 PM 57.9 °F - 30.9 °F 36% 30.00 in 10.0 mi Calm Calm - N/A   Clear
8:53 PM 57.0 °F - 30.0 °F 36% 29.99 in 10.0 mi NNE 9.2 mph - N/A   Clear
9:53 PM 53.1 °F - 32.0 °F 45% 29.98 in 10.0 mi NE 6.9 mph - N/A   Clear
10:53 PM 53.1 °F - 30.0 °F 41% 29.96 in 10.0 mi ENE 6.9 mph - N/A   Clear
11:53 PM 51.1 °F - 30.9 °F 46% 29.94 in 10.0 mi East 5.8 mph - N/A   Clear